AirNav   Air Wisconsin Up To $57,000 Bonus
 
 747 users online  

KHAO Butler County Regional Airport-Hogan Field
Hamilton, Ohio, USA

GOING TO HAMILTON?


FAA INFORMATION EFFECTIVE 05 DECEMBER 2019

Location

FAA Identifier: HAO
Lat/Long: 39-21-49.5000N 084-31-19.0000W
39-21.825000N 084-31.316667W
39.3637500,-84.5219444
(estimated)
Elevation: 633.3 ft. / 193.0 m (surveyed)
Variation: 05W (2000)
From city: 3 miles SE of HAMILTON, OH
Time zone: UTC -5 (UTC -4 during Daylight Saving Time)
Zip code: 45015

Airport Operations

Airport use: Open to the public
Activation date: 12/1937
Control tower: no
ARTCC: INDIANAPOLIS CENTER
FSS: DAYTON FLIGHT SERVICE STATION
NOTAMs facility: HAO (NOTAM-D service available)
Attendance: NOV-MAR 0700-2100, APR-OCT 0700-2200
Wind indicator: lighted
Segmented circle: no
Lights: ACTVT MIRL RY 11/29; REIL 11 & 29, PAPI 11 & 29, & MALS RY 29 - CTAF.
Beacon: white-green (lighted land airport)
Operates sunset to sunrise.

Airport Communications

CTAF/UNICOM: 123.05
WX ASOS: 121.425 (513-863-6137)
CINCINNATI APPROACH: 121.0
CINCINNATI DEPARTURE: 121.0
CLEARANCE DELIVERY: 126.25
WX AWOS-3 at MWO (12 nm NE): 120.025 (513-422-3505)
WX AWOS-3PT at I67 (13 nm SW): 118.15 (513-569-4964)
WX AWOS-3 at I68 (14 nm NE): 120.55 (513-934-5500)
WX AWOS-3PT at OXD (15 nm NW): 118.625 (513-273-2032)
WX ASOS at LUK (16 nm S): PHONE 513-321-6291
WX ASOS at MGY (19 nm NE): 118.375 (937-885-2171)

Nearby radio navigation aids

VOR radial/distance  VOR name  Freq  Var
CVGr026/22.5CINCINNATI VORTAC117.3004W
MXQr267/33.6MIDWEST VOR/DME112.9004W
DQNr189/39.6DAYTON VOR/DME114.5001W

 
NDB name  Hdg/Dist  Freq  Var  ID
HOOK FIELD207/8.823904WHKF .... -.- ..-.
CINCINNATI330/14.833504WLUK .-.. ..- -.-
SPORTYS324/22.424504WPWF .--. .-- ..-.
BATESVILLE093/34.225405WHLB .... .-.. -...

Airport Services

Fuel available: 100LL JET-A
Parking: hangars and tiedowns
Airframe service: MAJOR
Powerplant service: MAJOR
Bottled oxygen: LOW
Bulk oxygen: NONE

Runway Information

Runway 11/29

Dimensions: 5500 x 100 ft. / 1676 x 30 m
750 FT STWY WEST END.
Surface: asphalt, in good condition
Weight bearing capacity: 
Single wheel: 60.0
Double wheel: 75.0
Double tandem: 39.0
Runway edge lights: medium intensity
RUNWAY 11  RUNWAY 29
Latitude: 39-21.983263N39-21.667883N
Longitude: 084-31.863653W084-30.769597W
Elevation: 631.8 ft.618.9 ft.
Traffic pattern: leftleft
Runway heading: 115 magnetic, 110 true295 magnetic, 290 true
Markings: nonprecision, in fair conditionprecision, in fair condition
Visual slope indicator: 4-light PAPI on left (3.50 degrees glide path)4-light PAPI on left (3.00 degrees glide path)
Approach lights: MALS: 1,400 foot medium intensity approach lighting system
Runway end identifier lights: yesyes
Touchdown point: yes, no lightsyes, no lights
Instrument approach: ILS/DME
Obstructions: 58 ft. ant, lighted, 485 ft. from runway, 375 ft. right of centerline, 11:1 slope to clear140 ft. trees, 3450 ft. from runway, 100 ft. left of centerline, 23:1 slope to clear

Airport Ownership and Management from official FAA records

Ownership: Publicly-owned
Owner: BUTLER COUNTY BD OF COMMISSIONERS
2820 AIRPORT ROAD EAST
HAMILTON, OH 45015
Phone (513) 887-3412
Manager: DAVID C. FEHR
2820 AIRPORT ROAD EAST
HAMILTON, OH 45015
Phone 513-887-0444
ADNL CTC: MGR MOBILE PHONE 513-309-0562.

Airport Operational Statistics

Aircraft based on the field: 123
Single engine airplanes: 109
Multi engine airplanes: 10
Jet airplanes: 2
Helicopters: 2
    
Aircraft operations: avg 169/day *
53% transient general aviation
27% local general aviation
20% air taxi
* for 12-month period ending 09 September 2019

Additional Remarks

FOR CD CTC CINCINNATI APCH AT 859-372-6440.

Instrument Procedures

NOTE: All procedures below are presented as PDF files. If you need a reader for these files, you should download the free Adobe Reader.

NOT FOR NAVIGATION. Please procure official charts for flight.
FAA instrument procedures published for use from 05 December 2019 at 0900Z to 02 January 2020 at 0900Z.

 
STARs - Standard Terminal Arrivals
BRUSH THREE **CHANGED**   2 pages: [1] [2] (300KB)
CINCE NINE **NEW**   download (246KB)
HARDU FOUR **CHANGED**   2 pages: [1] [2] (313KB)
HEDEE FOUR **CHANGED**   2 pages: [1] [2] (244KB)
SHELBYVILLE SIX **CHANGED**   2 pages: [1] [2] (349KB)
 
IAPs - Instrument Approach Procedures
ILS OR LOC RWY 29 **CHANGED**   download (255KB)
RNAV (GPS) RWY 11 **CHANGED**   download (193KB)
RNAV (GPS) RWY 29 **CHANGED**   download (191KB)
NOTE: Special Alternate Minimums apply   download (16KB)
NOTE: Special Take-Off Minimums/Departure Procedures apply   download (164KB)

Other nearby airports with instrument procedures:

KMWO - Middletown Regional Airport/Hook Field (12 nm NE)
I67 - Cincinnati West Airport (13 nm SW)
I68 - Warren County Airport/John Lane Field (14 nm NE)
KOXD - Miami University Airport (15 nm NW)
KLUK - Cincinnati Municipal Airport-Lunken Field (16 nm S)
KMGY - Dayton-Wright Brothers Airport (19 nm NE)
 
Loc | Ops | Rwys | IFR | FBO | Links
Com | Nav | Svcs | Stats | Notes
Area around KHAO (Butler County Regional Airport-Hogan Field)
 
Road maps at: MapQuest Bing Google
 
Aerial photo
WARNING: Photo may not be current or correct
Aerial photo of KHAO (Butler County Regional Airport-Hogan Field)
Photo by Daniel Betts
Photo taken 02-Apr-2012
looking north.

Do you have a better or more recent aerial photo of Butler County Regional Airport-Hogan Field that you would like to share? If so, please send us your photo.

 
Sectional chart

 
Airport diagram
CAUTION: Diagram may not be current
Diagram of KHAO (Butler County Regional Airport-Hogan Field)
 
Airport distance calculator
Flying to Butler County Regional Airport-Hogan Field? Find the distance to fly.

From to KHAO

Sunrise and sunset
Times for 07-Dec-2019
 Local
(UTC-5)
 Zulu
(UTC)
Morning civil twilight07:1612:16
Sunrise07:4612:46
Sunset17:1422:14
Evening civil twilight17:4322:43

Current date and time
Zulu (UTC)  07-Dec-2019 07:13:02
Local (UTC-5)  07-Dec-2019 02:13:02
 
METAR
KHAO 070653Z AUTO 00000KT 10SM CLR M06/M06 A3036 RMK AO2 SLP287 I1001 T10561056
KMWO 
12nm NE 
070655Z AUTO 36003KT 10SM CLR M05/M06 A3037 RMK AO2 T10521061
KI67 
13nm SW 
070655Z AUTO 00000KT 10SM CLR M03/M05 A3035 RMK AO1
KI68 
14nm NE 
070655Z AUTO 02004KT 10SM CLR M01/M01 A3034 RMK AO1 T10131013
KOXD 
15nm NW 
070655Z AUTO 04006KT 10SM CLR M02/M04 A3034 RMK AO2 T10211037
KLUK 
17nm S 
070653Z AUTO 00000KT 1/4SM R21L/2200VP6000FT FZFG CLR M04/M05 A3036 RMK AO2 SLP285 I1001 T10391050 $
KMGY 
19nm NE 
070653Z AUTO 03004KT 10SM CLR M04/M06 A3033 RMK AO2 SLP277 T10391061
KCVG 
20nm S 
070652Z 03009KT 10SM CLR 00/M04 A3032 RMK AO2 SLP271 T00001044
TAF
KLUK 
17nm S 
070539Z 0706/0806 00000KT 5SM BR SKC TEMPO 0708/0712 2SM BR FM071300 11003KT P6SM SCT250
KCVG 
20nm S 
070539Z 0706/0812 04004KT P6SM SKC FM071400 11004KT P6SM SCT250 FM080900 15004KT P6SM BKN100
NOTAMs
Click for the latest NOTAMs
NOTAMs are issued by the DoD/FAA and will open in a separate window not controlled by AirNav.

 

 
 

FBO, Fuel Providers, and Aircraft Ground Support

  
 Business Name 
 
 Contact 
 
 Services / Description 
 
Fuel Prices
 
Comments
  
 Cincinnati Jet Center
513-867-9500
[web site]
Aviation fuel, Aircraft ground handling, Oxygen service, Aircraft parking (ramp or tiedown), Hangars, GPU / Power cart, Passenger terminal and lounge, ...
 
NATA Safety 1st   WSI Pilotbrief   Contract Fuel   Courtesy car   Enterprise Rent-A-Car  
 
More info about Cincinnati Jet Center
Shell
100LL Jet A
FS $5.35 $5.45 
 Updated 05-Dec-2019
 
   4 read write
FS=Full service
Update Fuel Prices
 

Would you like to see your business listed on this page?

 If your business provides an interesting product or service to pilots, flight crews, aircraft, or users of the Butler County Regional Airport-Hogan Field, you should consider listing it here.  To start the listing process, click on the button below
 
Add a business
 

Other Pages about Butler County Regional Airport-Hogan Field

www.butlercountyregionalairport.org
 
Update a link
 
Copyright © AirNav, LLC. All rights reserved. Privacy Policy  Contact